Location: Watson Lake
(60.1170°N, 128.8000°W)
Time: 15:22:04
(UTC-07:00)

Daily predictions for brighter satellites

Satellite Brightness Start Highest point End
(mag) Time Altitude Azimuth Time Altitude Azimuth Time Altitude Azimuth
Cosmos 2298 Rocket 4.1 20:43:34 10° SSW 20:48:55 84° ESE 20:54:17 10° NNE
CZ-2D R/B 3.5 20:45:29 10° SSE 20:49:23 79° WSW 20:53:19 10° NNW
GP-B 3.4 20:45:47 10° SSE 20:50:03 47° E 20:54:20 10° N
Cosmos 158 Rocket 4.5 20:46:00 10° NW 20:51:02 63° WSW 20:56:09 10° SSE
Cosmos 1805 3.4 20:49:38 10° S 20:53:26 51° E 20:57:16 10° NNE
Cosmos-2242 3.8 20:50:35 10° SSE 20:54:18 30° E 20:58:02 10° NNE
NOSS 2-1 (D) 4.2 20:51:00 10° W 20:55:22 69° NNW 21:01:04 10° ENE
NOSS 2-1 (C) 4.2 20:51:20 10° W 20:55:42 69° NNW 21:01:24 10° ENE
Cosmos 405 4.3 20:52:46 10° SW 20:56:11 45° WNW 20:59:37 10° N
Resurs 01 Rocket 2.5 20:53:40 10° S 20:58:01 55° WSW 21:02:25 10° NNW
Cosmos 1544 3.2 20:54:44 10° S 20:58:19 55° E 21:01:59 10° NNE
Cosmos 1356 Rocket 3.8 20:54:29 10° N 20:58:32 45° ENE 21:02:29 10° SE
Cosmos 1844 Rocket 2.8 20:55:51 10° SW 21:01:32 89° NW 21:07:11 10° NE
Cosmos 1821 Rocket 4.4 20:56:03 10° SSW 21:02:25 75° WNW 21:08:45 10° NNE
Cosmos 2227 Rocket 3.8 20:59:11 10° NW 21:04:05 28° N 21:08:57 10° ENE
Cosmos 1833 Rocket 3.7 20:58:42 10° NW 21:04:05 48° WSW 21:09:29 10° S
Cosmos 1437 Rocket 3.7 21:00:22 10° SSW 21:04:25 58° WNW 21:08:30 10° NNE
Lacrosse 5 2.7 21:03:19 10° SSW 21:07:47 32° SE 21:12:14 10° E
Cosmos 1743 Rocket 3.6 21:05:20 10° N 21:09:46 67° ENE 21:14:12 10° SSE
Cosmos 1470 3.4 21:07:02 10° SSE 21:10:41 36° E 21:14:20 10° NNE
Cosmos 1500 Rocket 3.7 21:06:48 10° N 21:11:05 54° ENE 21:15:19 10° SSE
Cosmos 2098 Rocket 4.5 21:03:38 10° S 21:11:08 69° E 21:18:25 10° NNE
Cosmos 494 Rocket 4.0 21:06:55 10° NNW 21:12:06 89° ENE 21:17:14 10° SSE
Cosmos 1340 Rocket 2.9 21:08:05 10° NNW 21:12:11 86° WSW 21:16:12 10° SSE
Cosmos 2221 4.4 21:10:26 11° ESE 21:12:18 13° ENE 21:14:24 10° NE
Cosmos 1733 3.8 21:10:06 10° SSE 21:13:40 36° E 21:17:16 10° NNE
Coronas F rocket 2.4 21:13:51 10° NNE 21:15:35 20° ENE 21:16:29 16° E
NOSS 2-1 (E) 4.3 21:12:40 10° W 21:17:11 66° N 21:23:09 10° ENE
Cosmos 1184 Rocket 2.8 21:14:10 10° NNW 21:17:36 74° ENE 21:21:00 10° SSE
CZ-3B DEB 3.0 21:10:20 10° SW 21:17:55 35° SSE 21:21:29 12° E
SPOT 5 3.6 21:12:59 10° SE 21:18:03 44° ENE 21:23:00 10° N
Cosmos 1867 4.3 21:15:34 10° S 21:20:19 31° ESE 21:25:06 10° ENE
H-2A R/B 3.5 21:17:29 11° E 21:20:19 22° NE 21:23:29 10° N
Cosmos 1605 Rocket 4.1 21:14:10 10° SSW 21:20:31 88° WNW 21:26:59 10° NNE
Cosmos 2278 Rocket 2.2 21:16:06 10° SSW 21:21:45 70° ESE 21:27:26 10° NE
Cosmos 2100 Rocket 4.2 21:17:30 10° SSE 21:23:40 56° E 21:29:53 10° NNE
Cosmos 990 Rocket 4.1 21:18:31 10° SW 21:23:47 82° WNW 21:29:03 10° NNE
Tsikada Rocket 4.2 21:17:47 10° N 21:23:54 56° ENE 21:30:03 10° SSE
CZ-4 DEB 4.4 21:25:49 13° ENE 21:26:40 14° ENE 21:28:11 10° NNE
ATLAS 5 CENTAUR R/B 3.0 21:23:59 10° S 21:27:47 23° ESE 21:31:53 10° ENE
Cosmos 2263 Rocket 3.7 21:24:25 10° W 21:29:37 37° NNW 21:34:49 10° NE
Terra 3.2 21:26:48 12° E 21:30:03 24° NE 21:33:51 10° N
Cosmos 1408 Rocket 4.5 21:25:47 10° NNW 21:30:09 52° W 21:34:30 10° S
Cosmos 2058 3.2 21:26:12 10° N 21:30:19 51° ENE 21:34:00 12° SE
Envisat 3.3 21:29:12 10° S 21:34:17 71° WSW 21:39:24 10° NNW
Timation 1 Rocket 4.4 21:29:49 10° SSW 21:35:40 56° ESE 21:41:34 10° NE
Cosmos 1898 Rocket 4.4 21:31:29 10° SW 21:36:41 53° NW 21:41:50 10° NNE
SL-14 R/B 3.2 21:33:20 10° NNW 21:37:13 83° ENE 21:41:06 10° SSE
Geosat 4.4 21:32:52 10° NE 21:37:39 41° ESE 21:42:24 10° S
Cosmos 2297 3.8 21:33:32 10° SSW 21:39:04 53° ESE 21:44:41 10° NE
SL-08 RB Rocket 4.3 21:37:06 15° SE 21:40:37 43° ENE 21:45:03 10° N
Cosmos 2151 2.9 21:37:27 10° NNW 21:41:46 74° ENE 21:45:51 11° SSE
Cosmos 2082 Rocket 4.1 21:37:17 10° NW 21:42:05 28° WSW 21:46:51 10° SSW
Cosmos 1328 3.9 21:38:27 10° NNW 21:42:28 82° W 21:46:27 10° S
USA 267 3.5 21:38:11 14° ESE 21:43:45 59° SSW 21:50:13 10° W
Cosmos 2219 4.0 21:39:27 10° NW 21:44:51 42° NNE 21:49:12 15° E
Cosmos 1125 Rocket 3.4 21:39:45 10° SSW 21:44:56 69° ESE 21:50:10 10° NE
Helios 1B rocket 2.4 21:41:57 10° NNE 21:46:07 71° ESE 21:50:14 10° S
Cosmos 1758 3.8 21:42:09 10° SSW 21:46:07 66° WNW 21:50:10 10° N
Cosmos 1802 Rocket 4.0 21:40:13 10° S 21:46:15 61° E 21:52:23 10° NNE
H-2A R/B 2.6 21:42:52 16° ESE 21:46:45 43° ENE 21:51:40 10° N
Meteor 1-11 4.2 21:42:07 10° NNW 21:47:45 89° ENE 21:53:21 10° SSE
ERS-1 Rocket 3.0 21:43:57 10° SSE 21:49:01 85° WSW 21:54:06 10° NNW
Meteor 1-29 2.9 21:45:58 10° NNE 21:49:26 65° ESE 21:52:54 10° S
Cosmos 2084 Rocket 3.4 21:47:14 10° W 21:51:08 69° NNW 21:54:56 10° ENE
Cosmos 1271 Rocket 2.7 21:48:32 10° S 21:52:34 74° ESE 21:56:37 10° NNE
Cosmos 1953 2.9 21:49:10 10° SSW 21:53:12 61° WNW 21:57:14 10° N
Cosmos 1842 Rocket 3.8 21:49:46 10° S 21:54:01 48° E 21:58:15 10° NNE
Cosmos 1816 Rocket 4.5 21:49:04 10° NNW 21:55:16 72° ENE 22:01:00 12° SSE
MetOp-A 4.1 21:51:41 12° SSE 21:56:44 83° ENE 22:02:08 10° NNW
Cosmos 2344 3.8 21:49:57 10° SW 21:57:50 75° SE 22:07:46 10° ENE
ARGOS 3.2 21:55:41 16° SSE 22:00:02 71° ENE 22:05:24 10° NNW
YAOGAN 6 2.9 21:56:30 11° S 22:00:06 70° WSW 22:03:52 10° NNW
MOS 1-B Rocket 4.4 21:55:19 15° SE 22:01:33 64° ENE 22:07:55 10° NNW
Cosmos 1939 Rocket 4.0 21:57:47 10° S 22:01:47 46° W 22:05:50 10° NNW
Cosmos 2061 Rocket 4.0 21:55:34 10° S 22:01:59 79° E 22:08:27 10° NNE
Meteor 1-16 Rocket 4.4 21:57:12 10° S 22:02:57 57° E 22:08:46 10° NNE
Lacrosse 4 Rocket 2.3 22:00:40 10° WSW 22:04:38 48° NNW 22:08:39 10° NE
USA 245 4.5 22:02:10 15° SSE 22:07:14 79° ENE 22:13:42 10° NNW
Cosmos 1703 3.2 22:04:32 10° NNW 22:08:30 77° ENE 22:10:56 22° SSE
Cosmos 1459 Rocket 4.0 22:05:40 10° SSW 22:11:55 88° WNW 22:18:05 10° NNE
YAOGAN 11 4.4 22:11:33 14° S 22:15:25 72° WSW 22:19:59 10° NNW
ATLAS CENTAUR R/B 2.0 22:15:34 10° WSW 22:16:33 22° SW 22:16:33 22° SW
Cosmos 2173 Rocket 4.1 22:12:54 10° SSW 22:19:08 82° WNW 22:25:32 10° NNE
Cosmos 2233 Rocket 4.3 22:15:53 18° SSE 22:20:07 46° E 22:25:56 10° NNE
NOSS 4 (H) 4.5 22:17:13 10° WSW 22:20:20 79° SSE 22:22:07 23° ENE
Meteor 2-1 Rocket 4.5 22:15:52 15° SSE 22:20:21 49° E 22:25:44 10° NNE
Cosmos 1626 2.1 22:18:13 10° NNW 22:22:00 90° WSW 22:23:56 28° SSE
Sich 1 3.2 22:17:46 10° N 22:22:10 60° ENE 22:24:13 30° SE
Meteor 1-4 Rocket 4.4 22:19:25 10° SW 22:22:36 33° WNW 22:25:51 10° N
Cosmos 2297 Rocket 3.4 22:17:52 10° NW 22:23:01 34° NNE 22:27:18 14° E
Cosmos 1864 Rocket 4.5 22:18:28 10° S 22:24:45 68° E 22:30:59 10° NNE
CARTOSAT-1 4.1 22:23:09 29° ESE 22:24:52 44° ENE 22:29:00 10° N
Cosmos 1666 Rocket 3.5 22:21:15 10° N 22:25:36 65° ENE 22:27:32 31° SE
Cosmos 1633 Rocket 3.2 22:24:01 10° N 22:28:27 60° ENE 22:30:18 32° SE
SPOT 1/Viking Rocket 3.5 22:27:12 23° SSE 22:30:36 89° E 22:35:54 10° NNW
Cosmos 407 Rocket 3.7 22:26:19 10° NNW 22:31:38 61° NE 22:34:11 30° ESE
Cosmos-2242 3.9 22:27:34 10° SW 22:31:43 50° WNW 22:35:55 10° N
Meteor 2-17 Rocket 4.5 22:28:07 10° SSW 22:34:17 87° WNW 22:40:29 10° NNE
Cosmos 389 Rocket 2.3 22:33:46 28° S 22:35:29 76° ESE 22:39:03 10° NNE
Cosmos 1933 Rocket 4.2 22:31:49 10° N 22:35:59 40° ENE 22:37:14 32° ESE
Cosmos 1833 4.2 22:30:43 10° NW 22:36:21 80° SW 22:39:23 29° SSE
Cosmos 372 Rocket 4.1 22:31:52 10° SW 22:37:01 75° NW 22:42:15 10° NNE
Cosmos 2369 Rocket 2.7 22:41:58 31° SE 22:43:12 35° ESE 22:48:15 10° NE
Cosmos 1908 4.0 22:45:38 34° E 22:45:38 34° E 22:49:02 10° NNE
Coronas F rocket 3.1 22:44:01 10° NW 22:45:45 20° W 22:46:01 20° WSW
CZ-4C R/B 3.6 22:47:49 21° E 22:47:49 21° E 22:50:55 10° ENE
Cosmos 1844 Rocket 4.2 22:40:50 10° W 22:46:04 37° NNW 22:51:18 10° NE
NOSS 2-1 (D) 4.4 22:41:40 10° WNW 22:46:31 66° NNE 22:50:58 20° E
Cosmos 1470 4.3 22:43:05 10° SW 22:46:49 37° WNW 22:50:32 10° N
NOSS 2-1 (C) 4.4 22:42:00 10° WNW 22:46:51 66° NNE 22:51:20 20° E
Cosmos 1726 4.2 22:48:45 15° ENE 22:48:45 15° ENE 22:50:00 10° NE
USA 215 3.8 22:42:59 10° ENE 22:48:46 32° SE 22:54:30 10° SSW
Cosmos 2221 2.5 22:47:15 34° S 22:49:05 66° E 22:53:28 10° NNE
Cosmos 2227 Rocket 3.0 22:44:03 10° NW 22:49:30 43° NNE 22:52:41 23° E
IGS 5A 3.5 22:48:34 44° SE 22:49:40 61° ENE 22:53:45 10° NNW
Lacrosse 5 1.9 22:45:13 10° WSW 22:50:11 57° SSE 22:52:13 34° ESE
Cosmos 2016 Rocket 4.2 22:45:02 10° SSW 22:51:12 70° WNW 22:57:21 10° NNE
Landsat 7 3.8 22:49:56 34° SSE 22:52:03 90° NW 22:56:51 10° NNW
Meteor 2-3 Rocket 4.4 22:47:02 10° N 22:52:20 41° ENE 22:54:25 30° ESE
Cosmos 1805 Rocket 4.0 22:48:16 10° NNW 22:52:39 61° W 22:55:00 26° S
H-2A R/B 1.9 22:54:36 42° SSE 22:55:56 83° WSW 23:00:05 10° NNW
SPOT 5 3.8 22:52:04 17° S 22:56:05 51° W 23:01:14 10° NNW
CZ-4 DEB 2.9 22:56:40 52° WNW 22:56:40 52° WNW 22:58:59 10° NNW
Cosmos 1400 Rocket 4.3 22:54:12 10° N 22:57:29 23° NE 22:58:02 23° ENE
Cosmos 1725 Rocket 4.0 22:53:57 10° SSW 23:00:11 80° WNW 23:06:26 10° NNE
Cosmos 1867 3.5 22:57:58 10° SW 23:03:28 87° SSE 23:08:59 10° ENE
Cosmos 1470 Rocket 3.6 23:00:02 10° N 23:04:31 69° ENE 23:05:32 50° SE
PSLV R/B 3.3 23:04:56 68° NNW 23:04:56 68° NNW 23:07:34 10° NNW
Elektron 1 3.9 23:01:53 10° WNW 23:04:43 67° SSW 23:04:48 66° SSW
Cosmos 1140 Rocket 3.8 22:59:32 10° NNW 23:04:44 56° NE 23:06:37 36° ESE
Cosmos 2278 Rocket 3.4 23:00:46 10° WSW 23:06:13 45° NNW 23:11:42 10° NE
Terra 1.7 23:05:40 42° SSE 23:07:18 90° E 23:12:07 10° NNW
DMSP B5D2-2 4.5 23:02:28 10° NNE 23:07:26 42° E 23:08:10 39° ESE
Cosmos 1464 Rocket 4.3 23:05:22 35° SE 23:07:26 48° E 23:13:27 10° NNE
NOSS 2-1 (E) 4.4 23:03:20 10° WNW 23:08:22 70° NNE 23:12:23 24° E
Spot 4 3.9 23:07:27 44° SE 23:08:49 64° ENE 23:13:37 10° NNW
Cosmos 1943 Rocket 3.0 23:11:23 31° E 23:11:23 31° E 23:15:43 10° NE
Cosmos 1300 4.4 23:12:35 22° ENE 23:12:35 22° ENE 23:14:38 10° NNE
ATLAS 5 CENTAUR R/B 1.8 23:06:43 10° SW 23:11:40 70° SE 23:17:12 10° ENE
Cosmos 1356 3.3 23:11:07 10° NNW 23:14:40 82° WSW 23:14:46 80° SW
Cosmos 2263 Rocket 4.1 23:10:14 10° WNW 23:15:01 27° N 23:19:47 10° ENE
Cosmos 676 Rocket 4.0 23:09:48 10° NNW 23:15:12 82° ENE 23:16:53 45° SE
Geosat 4.5 23:10:48 10° NE 23:15:48 62° NW 23:20:46 10° WSW
Nimbus 7 Rocket 4.3 23:14:44 10° NNE 23:20:39 79° ESE 23:24:05 26° SSW
CZ-4B R/B 4.1 23:17:19 10° NNE 23:21:53 36° E 23:21:53 36° E
Cosmos 2297 4.5 23:17:43 10° WSW 23:23:22 54° NW 23:29:03 10° NE
Cosmos 2034 Rocket 4.3 23:22:54 40° SE 23:24:30 48° E 23:30:28 10° NNE
H-2A R/B 2.7 23:23:29 27° SSW 23:26:10 51° W 23:31:18 10° NNW
Meteor 2-12 Rocket 4.3 23:25:13 38° S 23:27:37 71° E 23:33:39 10° NNE
USA 267 4.2 23:25:31 27° S 23:27:40 33° SW 23:33:28 10° WNW
CZ-3B DEB 2.3 23:23:36 10° WSW 23:28:14 36° SW 23:28:14 36° SW
Cosmos 2219 3.2 23:23:48 10° NW 23:29:29 76° SW 23:31:07 47° SSE
Cosmos 2084 Rocket 3.6 23:27:06 10° WNW 23:30:54 58° N 23:31:34 49° NE
Cosmos 1190 Rocket 4.3 23:25:55 10° NW 23:31:10 60° WSW 23:32:44 42° S
Cosmos 1741 Rocket 4.3 23:27:18 10° NNW 23:32:33 58° NE 23:33:59 43° ESE
deb Chang Zheng 4 3.5 23:35:17 10° NNE 23:39:45 68° ESE 23:39:51 68° ESE
Cosmos 614 Rocket 4.0 23:36:33 10° NNW 23:41:45 74° NE 23:42:49 55° ESE
Cosmos 1513 Rocket 4.4 23:40:08 47° SSE 23:41:47 65° E 23:47:48 10° NNE
Cosmos 1954 Rocket 4.0 23:36:38 10° NNW 23:42:00 83° WSW 23:43:09 56° SSE
Lacrosse 4 Rocket 3.4 23:40:33 10° WNW 23:44:07 28° N 23:47:44 10° NE
Cosmos 1092 Rocket 4.0 23:40:23 10° NNW 23:46:36 73° ENE 23:48:23 48° SE
Cosmos 1515 Rocket 3.8 23:47:53 54° ENE 23:47:53 54° ENE 23:51:44 10° NNE
NOSS 3-3 (A) 4.3 23:40:51 10° WNW 23:47:55 83° SSW 23:51:00 40° SE
NOSS 3-3 (C) 4.3 23:40:57 10° WNW 23:48:00 83° SSW 23:51:06 40° SE
SL-19 R/B 4.4 23:44:37 10° NNE 23:50:51 74° ESE 23:53:01 43° S
Cosmos 1892 3.1 23:47:12 10° N 23:50:35 57° NE 23:50:35 57° NE
Cosmos 1151 Rocket 3.6 23:53:26 46° ENE 23:53:26 46° ENE 23:57:07 10° NNE
Aureole 3 3.6 23:49:17 10° NNW 23:53:20 78° WSW 23:53:49 68° SSW
CZ-2C R/B 4.3 23:50:20 10° NE 23:53:33 19° ENE 23:53:33 19° ENE
Cosmos 1328 Rocket 3.4 23:54:54 81° E 23:54:54 81° E 23:59:12 10° NNE
Cosmos 1825 3.7 23:52:47 10° N 23:55:40 27° NE 23:55:40 27° NE
